STARLINK-4092 (52838 NORAD) Tracking and Keplerian Element Data

This shows tracking and keplerian element data for the satellite.

Feedback or suggestion? Click here.




ElementValue
Catalog52838
NameSTARLINK-4092
Epoch Orbit130
Epoch Day270.00001157
Epoch Year2022
RAAN289.0907
Inclination53.2158
Eccentricity0.000137
Argument of Perigee59.919
Mean Anonmoly314.5376
Mean Motion15.08815601
Decay Rate0.00045388
L11 52838U 22062J 22270.00001157 .00045388 00000+0 28535-2 0 9997
L22 52838 53.2158 289.0907 0001370 59.9190 314.5376 15.08815601 1309

Live tracking and technical data element details for STARLINK-4092 (NORAD 52838). STARLINK-4092 can be tracked NOW for your location showing map with azimuth and elevation plus other details from your city location.

Track the satellite on the map from your city or location and see movement details for azimuth, elevation, latitude, longitude, range, height, and movement on the map or in text.







IsCatalogInMostPopularTable: catalog: 52838, numindb: 4
Update: records affected: 1



GetName: 52838 STARLINK-4092

Hit Count: updated at: Thu, 06 Oct 2022 03:32:33 GMT